TimeEDT,TemperatureF,Dew PointF,Humidity,Sea Level PressureIn,VisibilityMPH,Wind Direction,Wind SpeedMPH,Gust SpeedMPH,PrecipitationIn,Events,Conditions,WindDirDegrees,DateUTC
12:51 AM,54.0,50.0,86,30.22,10.0,Calm,Calm,-,N/A,,Clear,0,2013-06-21 04:51:00
1:51 AM,51.1,48.9,92,30.22,10.0,Calm,Calm,-,N/A,,Clear,0,2013-06-21 05:51:00
2:51 AM,51.1,48.9,92,30.21,10.0,Calm,Calm,-,N/A,,Clear,0,2013-06-21 06:51:00
3:51 AM,50.0,48.9,96,30.22,10.0,ENE,3.5,-,N/A,,Clear,70,2013-06-21 07:51:00
4:51 AM,50.0,48.0,93,30.22,10.0,Calm,Calm,-,N/A,,Clear,0,2013-06-21 08:51:00
5:51 AM,50.0,48.9,96,30.23,10.0,NE,3.5,-,N/A,,Clear,50,2013-06-21 09:51:00
6:51 AM,55.0,52.0,89,30.24,10.0,Calm,Calm,-,N/A,,Clear,0,2013-06-21 10:51:00
7:51 AM,61.0,55.0,81,30.24,10.0,Calm,Calm,-,N/A,,Clear,0,2013-06-21 11:51:00
8:51 AM,66.9,55.9,68,30.24,10.0,Calm,Calm,-,N/A,,Clear,0,2013-06-21 12:51:00
9:51 AM,69.1,55.9,63,30.23,10.0,Calm,Calm,-,N/A,,Scattered Clouds,0,2013-06-21 13:51:00
10:51 AM,75.9,57.0,52,30.25,10.0,North,5.8,-,N/A,,Clear,10,2013-06-21 14:51:00
11:51 AM,75.9,53.1,45,30.25,10.0,Calm,Calm,-,N/A,,Clear,0,2013-06-21 15:51:00
12:51 PM,80.1,46.0,30,30.24,10.0,WNW,4.6,-,N/A,,Clear,300,2013-06-21 16:51:00
1:51 PM,82.0,46.9,29,30.22,10.0,North,5.8,-,N/A,,Clear,350,2013-06-21 17:51:00
2:51 PM,81.0,46.0,29,30.22,10.0,WNW,8.1,-,N/A,,Clear,290,2013-06-21 18:51:00
3:51 PM,82.9,48.0,29,30.21,10.0,NW,6.9,-,N/A,,Clear,310,2013-06-21 19:51:00
4:51 PM,84.0,48.9,29,30.20,10.0,WNW,8.1,-,N/A,,Clear,290,2013-06-21 20:51:00
5:51 PM,82.0,48.9,31,30.19,10.0,SW,6.9,-,N/A,,Clear,230,2013-06-21 21:51:00
6:51 PM,81.0,50.0,34,30.20,10.0,WSW,6.9,-,N/A,,Clear,240,2013-06-21 22:51:00
7:51 PM,78.1,52.0,40,30.20,10.0,Calm,Calm,-,N/A,,Clear,0,2013-06-21 23:51:00
8:51 PM,68.0,57.0,68,30.20,10.0,Calm,Calm,-,N/A,,Clear,0,2013-06-22 00:51:00
9:51 PM,63.0,57.0,81,30.22,10.0,Calm,Calm,-,N/A,,Clear,0,2013-06-22 01:51:00
10:51 PM,61.0,57.0,87,30.21,10.0,Calm,Calm,-,N/A,,Clear,0,2013-06-22 02:51:00
11:51 PM,59.0,57.0,93,30.22,10.0,Calm,Calm,-,N/A,,Clear,0,2013-06-22 03:51:00